SL-3 R/B (12465 NORAD) Tracking and Keplerian Element Data

This shows tracking and keplerian element data for the satellite.

Feedback or suggestion? Click here.




ElementValue
Catalog12465
NameSL-3 R/B
Epoch Orbit39030
Epoch Day35.18345667
Epoch Year2025
RAAN44.3639
Inclination81.2346
Eccentricity0.0022137
Argument of Perigee323.241
Mean Anonmoly36.7308
Mean Motion15.31845393
Decay Rate0.0001391
L11 12465U 81046B 25035.18345667 .00013910 00000+0 44792-3 0 9994
L22 12465 81.2346 44.3639 0022137 323.2410 36.7308 15.31845393390307



Live tracking and technical data element details for SL-3 R/B (NORAD 12465). SL-3 R/B can be tracked NOW for your location showing map with azimuth and elevation plus other details from your city location.







IsCatalogInMostPopularTable: catalog: 12465, numindb: 364
Update: records affected: 1



GetName: 12465 SL-3 R/B

Hit Count: updated at: Sat, 17 May 2025 09:26:30 GMT